Dewpoint
58 58 58 59 59 60 60 60 60 60 60 61 61 61 61 61 61 61 61 61 61 61 61 61 62 63 62 62 62 62 58 43 46 46 43 39 51 62 63 66 66 65 60 53 51 36 36 31 31 31 34 39 41 36 44 40 43 40 33 29 24 28 27 30 25 22 25 22 21 21 20 19 18 21 23 23 22 23 24 26 26 26 26 30 37 37 36 36
57 57 58 58 59 59 60 60 60 60 60 60 60 60 61 60 61 60 61 61 61 61 61 61 62 62 62 61 62 60 54 52 46 43 40 64 64 65 66 66 65 65 59 48 44 35 33 29 29 30 35 36 46 35 39 39 41 36 34 29 23 28 27 29 23 19 17 18 20 21 21 19 18 21 22 20 19 21 20 21 25 24 26 33 35 35 35 35
57 57 57 57 58 58 59 59 59 60 60 60 60 60 60 60 60 61 61 61 61 60 61 61 62 63 60 61 60 58 54 48 47 39 39 64 65 66 65 66 66 66 51 44 41 30 28 27 26 27 35 32 38 34 39 38 37 37 32 29 30 33 29 26 21 19 20 19 20 19 20 20 20 21 22 21 19 21 19 19 22 23 23 29 34 34 34 34
57 56 57 57 57 58 58 58 59 59 60 60 60 60 60 60 60 60 61 61 61 61 61 61 62 62 62 61 60 56 55 50 39 41 44 62 63 65 64 65 66 64 54 48 41 33 30 27 26 26 32 29 30 41 37 37 32 34 31 29 28 29 25 23 21 21 22 21 21 20 19 20 20 20 20 20 18 18 19 19 19 20 22 25 33 33 33 32
56 57 56 56 57 57 57 58 58 58 59 59 59 60 59 60 60 60 60 61 61 61 61 61 61 62 61 61 60 56 50 23 27 46 55 62 63 62 63 66 65 57 50 46 30 28 28 25 25 32 31 24 32 35 34 35 32 34 26 26 27 27 25 24 21 24 22 21 20 20 17 16 21 21 19 19 17 17 18 19 20 20 20 24 32 33 33 32
56 56 56 56 56 57 57 57 58 58 58 59 59 59 59 59 59 60 60 60 60 60 60 61 61 61 61 60 54 54 31 6 35 50 59 62 63 63 64 63 64 56 49 39 27 29 28 28 27 29 24 23 24 24 26 32 32 27 27 25 27 27 26 25 21 24 19 20 19 18 18 20 19 19 20 19 18 18 21 20 20 20 20 23 30 33 32 32
56 56 56 56 56 56 56 57 57 57 58 58 58 59 59 59 59 59 60 59 60 60 60 60 61 61 59 59 53 52 39 35 50 53 58 59 61 64 62 63 60 51 40 28 26 25 28 27 27 28 28 26 23 23 23 26 31 28 26 22 21 22 21 21 20 24 21 19 18 18 21 19 20 17 20 19 19 19 20 21 21 22 25 23 28 32 32 32
57 56 56 56 56 56 56 57 57 57 57 57 58 58 58 58 59 59 59 60 59 60 60 60 61 61 58 56 48 37 40 35 41 52 58 59 60 59 59 51 47 45 33 27 24 23 27 25 24 29 24 22 23 23 26 25 27 26 25 23 22 22 21 23 20 21 21 20 19 22 19 18 19 18 20 18 19 20 20 21 20 22 25 26 25 30 32 32
57 57 56 56 56 56 56 56 56 56 57 57 57 58 58 58 58 59 59 59 60 60 60 60 61 60 57 50 45 35 32 45 43 47 54 56 52 49 48 38 40 34 31 29 26 28 29 27 26 26 22 26 27 23 24 22 20 23 23 22 19 18 18 18 18 18 19 20 20 19 18 18 19 24 19 19 19 19 20 20 20 20 23 25 24 27 30 31
57 56 56 56 56 56 56 55 56 56 56 57 57 57 57 58 58 59 59 59 59 60 59 60 60 60 52 43 40 26 34 42 43 44 47 48 43 41 40 43 37 36 30 28 28 27 26 28 31 36 34 24 27 21 26 24 21 21 21 21 18 18 18 19 18 18 19 20 20 18 18 18 21 20 15 17 19 20 20 19 20 20 20 22 24 25 27 29
58 56 56 56 55 56 56 55 55 55 56 56 56 57 57 57 58 58 58 59 59 59 59 60 59 53 48 45 39 29 44 44 40 39 41 43 40 31 35 41 37 35 30 31 28 25 26 31 42 39 34 20 24 22 24 22 22 21 19 18 19 19 19 18 18 17 18 17 20 19 18 20 20 23 17 16 20 21 19 20 20 21 20 20 22 24 27 27
58 57 57 56 56 56 57 57 56 56 56 56 56 56 56 57 57 57 58 58 59 59 59 60 60 56 46 44 39 33 45 43 40 38 39 40 39 42 47 38 34 44 36 28 31 42 39 37 38 25 19 26 21 23 20 22 20 19 19 18 19 19 18 19 19 19 18 17 20 20 19 17 20 18 18 19 20 19 20 20 20 20 21 22 22 21 26 27
58 58 58 57 57 57 57 57 57 56 56 55 56 56 56 56 57 57 58 58 58 58 59 60 53 54 46 33 37 45 42 38 40 40 42 45 42 44 38 43 38 37 40 37 38 45 44 41 36 28 29 27 24 19 24 23 21 21 19 18 18 18 17 17 19 18 18 17 20 17 15 15 14 16 18 18 19 19 19 19 19 21 21 21 22 21 22 25
58 58 58 57 57 57 58 57 57 56 56 56 56 56 56 56 57 57 58 58 58 59 60 60 56 55 39 30 39 43 43 44 41 43 44 46 35 40 46 45 47 42 40 35 41 42 40 36 34 28 34 24 22 31 21 22 21 18 19 19 19 18 17 18 18 18 16 21 19 17 16 14 14 14 14 15 18 18 18 18 18 19 21 21 22 23 23 22
58 58 58 58 57 57 57 57 57 56 56 55 56 56 57 57 57 57 58 58 58 59 60 60 54 46 36 35 41 41 60 36 37 42 43 37 42 41 43 45 43 42 36 37 40 38 37 41 32 29 23 24 28 22 20 21 21 19 17 18 24 18 19 18 20 17 16 19 18 16 18 15 15 15 15 15 17 18 17 17 18 19 19 20 21 21 22 23
58 58 58 58 58 57 57 57 56 56 56 56 56 56 57 57 57 57 57 57 58 59 58 51 54 45 30 23 36 53 42 35 33 39 43 42 45 38 43 40 38 31 30 28 34 31 30 35 23 24 24 22 21 21 21 21 21 23 17 18 18 23 19 19 20 19 17 18 18 16 15 15 14 14 15 18 19 17 17 17 18 18 18 19 19 20 21 22
57 58 58 58 58 57 57 57 56 56 56 56 56 56 57 57 57 58 58 58 58 58 56 50 45 39 25 32 37 33 35 41 45 42 39 39 46 44 36 36 31 32 33 29 33 35 29 26 30 25 29 23 20 26 19 21 20 21 22 17 22 18 17 18 21 20 23 17 16 16 15 14 14 12 12 15 21 18 17 17 17 18 18 18 20 20 21 22
58 58 58 58 58 58 57 57 57 57 56 56 57 57 56 57 59 58 57 56 56 54 52 55 44 32 29 36 28 25 45 42 43 44 41 37 40 34 34 29 34 29 33 28 32 24 29 23 24 24 26 25 20 22 20 13 14 18 21 21 19 18 18 18 19 18 17 18 16 16 16 15 15 15 15 15 17 18 17 17 17 17 18 19 20 20 20 21
58 58 58 58 58 58 57 57 57 57 57 57 57 56 57 58 55 52 50 51 42 31 25 32 35 22 19 25 34 39 47 46 44 41 37 36 39 35 35 30 34 25 28 25 27 24 30 28 31 25 21 21 20 19 19 16 16 15 16 15 17 16 13 11 13 19 17 17 16 16 15 15 16 16 16 16 16 16 17 17 18 17 18 18 18 19 20 21
59 59 58 58 58 58 57 57 58 58 57 55 52 52 47 41 38 35 39 45 40 24 21 27 32 29 33 29 37 42 47 44 36 39 41 42 34 33 31 28 37 29 26 24 30 25 31 22 24 24 19 18 21 19 19 18 17 16 20 21 16 16 16 16 17 17 18 17 16 16 16 15 15 15 16 16 17 17 16 16 17 18 18 18 18 19 19 19
59 58 58 58 58 58 57 58 58 57 57 54 51 46 27 35 27 22 27 27 39 39 32 27 32 29 24 36 42 38 34 32 37 38 36 39 31 28 27 24 32 28 27 30 28 31 26 23 24 23 19 17 19 20 19 19 18 18 19 19 16 22 16 17 17 17 18 17 16 17 17 16 15 15 16 16 16 15 15 15 16 16 17 18 19 19 19 19
58 57 58 58 58 58 58 58 57 57 57 52 49 44 43 44 45 45 32 25 31 33 37 35 31 28 28 37 39 39 32 23 33 39 42 33 27 23 23 22 27 23 29 28 27 25 26 24 22 23 21 21 20 19 19 19 19 20 18 18 20 20 22 20 19 18 16 18 15 15 15 15 16 16 16 16 15 15 16 16 16 16 17 18 18 18 18 19
58 57 58 58 58 58 58 57 57 57 52 47 47 44 45 45 46 46 45 38 37 37 31 31 31 31 29 29 37 34 25 23 20 38 37 35 29 24 23 20 24 24 28 24 21 22 22 26 25 24 24 23 22 21 20 19 20 19 18 20 18 20 18 14 15 15 15 15 16 17 15 15 16 17 17 18 17 17 19 19 19 21 18 18 17 17 18 19
58 58 58 58 58 58 58 57 57 51 47 45 45 43 45 45 45 45 45 35 27 29 28 25 23 26 28 23 29 31 27 23 22 23 39 30 24 29 24 20 21 23 21 22 19 17 15 21 26 26 27 24 22 22 20 17 17 21 22 20 19 20 18 17 14 18 18 19 20 15 17 17 18 18 19 20 20 20 19 19 19 21 25 24 26 26 25 21
58 58 58 58 57 57 57 57 49 47 47 46 44 44 45 45 44 46 41 36 30 30 39 35 33 35 23 36 36 29 26 24 20 33 37 29 26 23 22 22 19 19 19 20 21 20 18 18 29 26 27 25 26 23 23 23 17 18 23 22 19 18 17 17 19 19 20 22 21 21 18 16 20 20 19 19 18 18 19 20 20 20 20 22 21 21 23 29
58 58 58 57 57 57 57 50 46 49 47 46 46 46 45 45 45 44 38 25 22 30 32 27 34 25 36 25 34 30 17 17 32 35 34 31 34 22 22 20 20 18 18 21 17 21 19 21 25 24 26 27 27 24 26 24 19 19 19 24 21 19 21 22 23 22 20 20 22 21 18 15 17 18 19 19 19 18 18 20 19 20 21 21 22 22 23 26
58 58 58 57 57 57 49 45 49 48 44 46 46 47 45 46 47 42 32 23 21 30 26 36 30 32 38 32 26 19 15 19 32 34 34 38 28 35 19 19 20 20 19 22 22 20 17 18 22 26 24 25 24 22 25 24 21 18 27 28 26 24 24 25 26 25 23 26 27 22 22 18 18 18 17 17 17 16 17 18 19 20 20 21 21 22 21 29
58 58 57 58 57 54 50 50 49 46 44 46 48 47 46 45 46 44 21 15 15 31 31 30 33 39 34 31 38 15 17 24 26 31 30 32 30 28 23 19 18 19 19 22 18 32 18 23 25 25 26 25 23 23 25 27 21 24 27 31 28 27 27 28 25 24 25 21 21 22 22 17 17 16 17 16 14 14 14 15 17 19 20 20 21 22 22 25
58 58 57 57 57 56 54 50 49 47 48 48 47 47 47 45 39 30 22 14 27 30 33 26 37 33 31 31 27 26 23 26 19 27 33 33 35 28 24 23 22 19 20 21 16 22 25 28 28 27 26 23 24 30 28 28 23 27 30 31 29 28 26 25 20 20 22 17 17 20 20 15 14 15 15 16 15 14 14 14 14 16 17 18 20 21 22 23
58 57 57 57 56 54 52 52 50 50 50 48 48 46 46 42 32 21 17 12 26 25 27 31 28 28 29 26 26 27 23 24 26 27 29 27 31 31 25 28 23 22 24 22 24 25 25 27 32 29 25 24 26 28 30 29 29 32 29 27 27 26 24 23 23 21 19 16 18 21 20 16 13 18 14 16 18 15 14 13 14 15 17 16 17 17 22 23
58 57 57 56 54 54 52 49 50 51 50 48 48 48 44 35 23 18 16 24 29 30 28 27 25 30 25 24 23 26 26 24 24 27 25 26 27 26 25 22 29 26 24 22 24 24 24 27 25 28 29 28 27 26 29 30 30 28 24 23 22 22 23 22 20 19 12 14 19 20 21 19 14 13 17 14 16 14 14 13 13 14 14 16 17 20 21 23
58 57 57 56 55 55 49 50 51 51 50 49 49 44 38 24 26 18 20 22 25 30 27 27 30 28 25 27 29 26 24 24 24 24 22 24 25 23 23 19 23 16 20 18 19 24 21 22 25 29 33 26 27 24 25 27 27 27 23 21 16 18 18 10 14 10 12 13 16 19 22 20 15 10 15 15 16 15 16 13 13 14 14 15 16 17 26 28
57 57 56 56 55 55 55 53 52 52 51 50 46 39 31 26 28 28 25 26 26 28 27 31 29 27 29 26 27 30 29 23 25 23 27 27 25 26 28 23 28 20 16 23 20 21 24 27 25 27 26 30 28 21 23 19 21 25 22 22 17 12 9 8 11 13 15 18 20 17 23 14 13 15 17 14 14 15 16 17 16 15 14 14 16 19 29 32
57 57 56 55 56 56 55 53 52 51 51 50 46 41 36 27 30 37 29 26 28 30 33 34 29 30 30 24 29 29 24 31 24 23 24 26 24 23 26 26 26 25 25 23 16 22 17 18 23 26 22 29 26 22 22 20 23 24 25 22 21 18 10 6 9 9 11 13 16 19 16 18 9 13 20 16 16 16 16 17 17 17 16 15 17 30 32 31
57 57 57 56 55 56 54 53 52 52 49 47 42 36 29 30 33 33 31 28 29 24 25 30 30 29 28 29 32 31 25 24 27 26 25 26 24 24 25 24 25 24 26 20 25 19 20 19 22 28 29 29 26 27 26 27 23 24 25 23 18 20 18 17 16 16 11 15 16 14 18 18 15 19 21 22 21 20 18 17 18 17 18 18 23 31 32 32
56 56 57 54 54 55 55 53 52 52 49 44 36 32 32 35 32 33 33 36 32 33 29 27 34 29 27 29 32 33 34 26 29 27 27 26 26 26 28 28 25 23 23 21 25 19 20 18 31 29 29 27 25 28 27 27 18 24 23 20 21 25 20 20 22 21 15 12 15 13 16 18 19 13 15 16 17 19 20 17 16 16 16 16 21 29 31 31
54 55 52 54 54 55 55 52 51 51 49 43 36 32 36 36 40 37 38 28 28 25 32 25 29 25 28 27 28 32 32 31 31 27 25 29 24 28 28 29 29 25 24 21 26 27 22 20 30 28 26 27 25 28 28 29 28 22 19 22 26 28 27 22 16 20 15 15 15 16 15 12 13 14 17 16 16 16 17 18 15 14 16 14 18 26 32 31
54 53 53 53 54 55 54 52 51 50 47 41 35 37 38 36 39 37 37 37 33 36 30 31 28 30 27 24 24 30 34 28 30 28 27 27 25 31 27 28 29 26 24 24 22 31 29 23 25 29 28 28 29 27 25 28 29 23 24 29 22 18 16 20 20 15 15 15 15 14 12 13 12 11 11 11 12 15 14 16 16 14 13 14 14 22 28 29
53 52 48 51 55 55 52 52 51 48 43 37 36 37 39 37 37 35 35 35 37 34 34 32 29 32 30 28 30 32 33 27 32 29 27 28 25 30 27 28 29 28 25 24 22 27 32 27 26 28 28 26 25 25 22 23 27 28 27 23 27 22 20 18 21 18 17 14 15 15 15 13 17 12 12 11 11 14 13 14 14 15 14 13 14 22 25 26
50 48 46 53 54 54 52 51 48 45 41 35 37 38 40 38 39 39 38 35 33 31 35 34 37 34 35 34 34 31 33 32 30 30 29 30 26 30 29 29 30 32 26 25 26 28 27 27 22 24 27 27 20 23 23 24 24 23 24 22 22 19 22 23 21 20 16 14 14 13 13 16 16 13 12 12 10 12 13 14 17 17 16 15 16 20 23 25
51 47 47 53 54 52 51 48 43 39 38 37 39 38 38 38 40 38 39 40 41 37 28 29 32 32 31 28 27 29 29 31 32 30 31 30 25 25 31 34 34 34 33 30 29 30 29 26 23 23 20 21 22 25 25 26 25 24 23 22 22 21 17 17 18 23 21 17 16 14 14 18 16 14 15 13 13 17 17 16 16 16 16 16 18 19 21 23
47 41 45 52 52 51 47 40 38 40 37 37 37 39 38 41 39 39 39 40 39 38 31 29 32 31 31 29 32 32 32 32 34 33 33 33 33 30 34 32 30 34 32 29 29 35 33 29 26 25 25 24 28 30 30 28 27 27 24 23 25 22 21 20 16 19 21 20 21 21 17 18 21 20 18 17 16 14 16 17 15 16 16 15 18 19 21 22
45 43 50 52 52 50 45 39 40 38 36 39 42 39 42 41 40 41 39 39 38 37 34 34 34 33 33 33 34 34 36 34 34 34 34 35 35 35 36 34 35 32 28 27 31 30 31 26 23 25 28 31 30 30 27 27 27 25 25 27 25 21 22 21 21 18 19 19 18 20 19 20 24 22 21 20 20 18 16 16 16 16 17 19 22 22 22 22
43 44 45 51 51 50 44 35 34 36 37 39 38 38 40 40 40 38 38 38 37 35 36 34 34 33 34 36 34 34 37 32 34 35 34 35 36 37 36 36 37 36 30 27 30 33 27 28 27 25 25 26 26 26 25 26 26 24 22 25 27 26 26 25 25 22 19 21 20 18 16 19 23 21 22 23 22 19 16 15 19 18 18 21 20 20 22 23
44 44 45 47 50 49 42 42 39 37 37 37 36 36 36 36 39 39 38 38 39 37 34 34 36 35 34 35 34 35 36 35 33 35 34 33 36 36 35 36 36 36 34 37 33 38 31 32 31 26 23 20 19 20 21 23 24 23 26 25 25 25 25 23 22 23 20 21 22 20 20 22 24 24 23 23 23 23 22 19 17 17 18 19 19 19 19 20
40 34 41 42 46 45 44 45 42 40 37 36 36 36 37 36 38 39 39 38 39 38 36 36 36 36 34 33 33 34 34 36 34 32 34 33 34 34 35 35 35 35 36 36 37 38 32 33 33 32 29 26 27 27 32 29 23 22 24 24 24 25 24 24 24 23 21 23 23 24 24 23 24 24 24 24 24 23 22 22 19 17 16 18 18 20 21 21
42 36 37 35 42 42 41 43 42 42 38 38 34 36 35 36 36 36 40 36 38 38 38 38 36 34 34 34 33 33 34 33 35 34 33 33 34 35 36 36 36 36 37 36 38 32 32 31 32 33 32 32 32 31 32 31 28 28 28 26 26 25 26 26 23 21 24 23 21 24 26 26 26 25 25 25 25 24 24 23 22 21 20 20 20 20 26 21
34 34 38 39 37 33 36 37 42 41 42 40 37 38 36 35 35 34 38 38 38 38 36 37 38 36 35 34 34 32 32 33 33 33 33 33 33 34 34 36 35 36 36 34 37 32 30 29 31 32 32 33 34 33 33 32 31 31 31 30 29 28 26 24 25 25 24 23 21 23 25 26 26 26 26 26 25 25 24 24 23 22 21 20 20 20 20 20
37 36 36 39 34 37 37 36 35 37 37 38 36 38 36 36 35 36 35 33 36 35 37 34 36 37 36 36 35 33 33 32 31 33 33 33 33 33 33 33 34 36 36 34 35 33 31 31 32 32 31 31 32 33 33 33 32 32 31 31 31 30 29 27 25 25 24 24 24 24 25 25 26 26 26 26 26 26 25 25 24 23 22 22 22 22 21 21
30 34 31 36 35 34 32 32 34 35 33 36 34 35 35 35 35 36 37 37 34 36 39 36 36 37 37 37 36 34 34 34 34 32 33 31 31 32 33 33 33 31 34 33 32 31 33 30 33 31 31 30 31 32 32 32 32 31 31 31 31 31 30 30 30 29 29 27 27 26 26 25 26 26 26 26 26 26 25 24 23 24 24 24 23 23 23 23
37 40 39 33 30 31 31 29 30 32 32 33 34 34 35 35 34 36 35 37 36 35 36 35 37 33 34 34 34 35 36 31 31 32 33 33 30 35 33 33 37 33 29 30 29 29 32 30 31 30 28 28 30 31 31 31 31 30 30 30 30 30 29 30 29 29 29 28 28 28 27 26 27 27 27 26 26 26 25 25 25 25 24 24 25 25 24 23
36 37 39 36 28 30 29 27 28 28 26 29 32 33 33 33 32 34 32 37 38 38 36 34 34 34 32 32 31 34 34 34 34 34 34 35 36 36 38 38 38 36 33 31 30 29 30 28 28 28 27 26 29 30 29 29 29 27 28 30 30 30 30 30 30 30 29 29 28 26 26 27 27 28 27 27 26 26 26 26 26 25 26 26 25 25 25 24